Regional Weather Roundup
Issued by NWS

Home | Current Version | Previous Version | Graphics & Text | Print | Product List | Glossary On
Versions: 1 2 3 4 5 6 7 8 9 10 11 12 13 14 15 16 17 18 19 20 21 22 23 24 25 26 27
000
ASUS45 KPSR 050710
RWRAZ

ARIZONA HOURLY REGIONAL WEATHER ROUNDUP
NATIONAL WEATHER SERVICE PHOENIX AZ
1200 AM MST THU MAY 05 2016

NOTE: FAIR INDICATES FEW OR NO CLOUDS BELOW 12,000 FEET WITH NO
SIGNIFICANT WEATHER AND/OR OBSTRUCTIONS TO VISIBILITY.

AZZ001>003-036-050800-
NORTHWEST ARIZONA

CITY           SKY/WX    TMP DP  RH WIND       PRES   REMARKS
BULLHEAD CITY  CLOUDY    86  32  14 S10       29.74F
KINGMAN        MOCLDY    65  34  31 S8        29.91S
$$

AZZ004>008-015-016-018-050800-
NORTH CENTRAL ARIZONA

CITY           SKY/WX    TMP DP  RH WIND       PRES   REMARKS
GRAND CANYON   PTCLDY    41  30  65 CALM      30.14F
WILLIAMS       CLEAR     48  23  37 SE8       30.23R
PRESCOTT       CLEAR     62  25  24 SW10      30.06R
FLAGSTAFF      CLEAR     40  28  62 CALM      30.18S
PAYSON         CLEAR     63  25  23 CALM      30.10R
PAGE           PTCLDY    71  26  18 S8        29.98R
$$

AZZ009>014-017-050800-
NORTHEAST ARIZONA

CITY           SKY/WX    TMP DP  RH WIND       PRES   REMARKS
WINSLOW        CLEAR     57  35  43 E3        30.06R
SAINT JOHNS    CLEAR     59  25  27 E8        30.12S
WINDOW ROCK    CLEAR     47  35  63 CALM      30.22R
SHOW LOW       PTCLDY    57  19  23 S9        30.18R
$$

AZZ023-050800-
GREATER PHOENIX AREA

CITY           SKY/WX    TMP DP  RH WIND       PRES   REMARKS
PHOENIX        CLEAR     84  26  12 N7        29.82R
BUCKEYE        CLEAR     73  25  16 CALM      29.84R
LUKE AFB       CLEAR     76  34  21 E2        29.82R
DEER VALLEY    CLEAR     77  26  15 E6        29.85R
SCOTTSDALE     CLEAR     80  25  13 CALM      29.86S
MESA-GATEWAY   CLEAR     75  25  15 E6        29.86R
$$

AZZ027-028-050800-
SOUTHWEST MARICOPA COUNTY AND PINAL COUNTY

CITY           SKY/WX    TMP DP  RH WIND       PRES   REMARKS
CASA GRANDE    CLEAR     73  28  19 S3        29.87R
GILA BEND      FAIR      76  18  11 SE10      29.81R
$$

AZZ503-504-507>509-050800-
SOUTHEAST ARIZONA

CITY           SKY/WX    TMP DP  RH WIND       PRES   REMARKS
TUCSON         CLEAR     74  33  22 SE7       29.96R
DAVIS-MONTHAN  CLEAR     71  34  25 SE8       29.95R
NOGALES        CLEAR     65  30  27 E8        30.02S
SIERRA VISTA   CLEAR     64  24  21 W6        30.08S
DOUGLAS        CLEAR     74  25  16 E13       30.05R
SAFFORD        CLEAR     71  24  17 E7        29.99R
$$

AZZ020-021-025-026-031-050800-
SOUTHWEST ARIZONA

CITY           SKY/WX    TMP DP  RH WIND       PRES   REMARKS
YUMA           MOCLDY    75  37  25 SE12      29.74S
$$

CAZ031-033-041-043-047-048-061-050800-
SOUTHERN CALIFORNIA

CITY           SKY/WX    TMP DP  RH WIND       PRES   REMARKS
DOWNTOWN L.A.  CLOUDY    61  52  72 VRB3      29.94F
L.A. AIRPORT   MOCLDY    60  52  74 SW3       29.94F
SAN DIEGO      MOCLDY    62  51  67 W5        29.96S
BURBANK        CLOUDY    58  50  75 S5        29.93F
ONTARIO        MOCLDY    57  50  77 W8        29.93F
RIVERSIDE      CLOUDY    57  50  77 W7        29.94S
PALM SPRINGS   CLEAR     73  45  36 NW13G20   29.75F
EL CENTRO NAS  PTCLDY   N/A N/A N/A W13       29.74S
IMPERIAL       MOCLDY    77  45  32 CALM      29.72F
BLYTHE         MOCLDY    81  35  19 W7        29.74F
NEEDLES        CLOUDY    82  35  18 W9        29.75R
$$

NVZ020-UTZ003-050800-
SOUTHERN NEVADA-UTAH

CITY           SKY/WX    TMP DP  RH WIND       PRES   REMARKS
LAS VEGAS      CLOUDY    77  30  17 SE3       29.75S
SALT LAKE CITY MOCLDY    66  36  32 SE9       29.95S
$$

NMZ009-TXZ055-050800-
NEW MEXICO-WEST TEXAS

CITY           SKY/WX    TMP DP  RH WIND       PRES   REMARKS
ALBUQUERQUE    CLEAR     61  21  21 SW6       30.20R
EL PASO        CLEAR     69  20  15 VRB5      30.12S
$$


........................KEY........................
SKY/WX - SKY CONDITION/WEATHER
TMP    - TEMPERATURE IN FAHRENHEIT
DP     - DEW POINT IN FAHRENHEIT
RH     - RELATIVE HUMIDITY IN PERCENT
WIND   - DIRECTION AND SPEED IN MILES PER HOUR (MPH)
VRB    - VARIABLE WIND DIRECTION
PRES   - MEAN SEA LEVEL PRESSURE IN INCHES OF MERCURY
         F - FALLING PRESSURE   R - RISING PRESSURE
         S - STEADY PRESSURE
VSB    - VISIBILITY IN MILES
HX     - HEAT INDEX IN FAHRENHEIT
WCI    - WIND CHILL INDEX IN FAHRENHEIT
TC     - TEMPERATURE IN CELSIUS WHICH IS ALSO KNOWN AS
         TEMPERATURE IN CENTIGRADE
AFB    - AIR FORCE BASE
         LUKE AFB IS LUKE AIR FORCE BASE
         DAVIS-MONTHAN IS DAVIS-MONTHAN AIR FORCE BASE
NAS    - NAVAL AIR STATION
         EL CENTRO NAS IS EL CENTRO NAVAL AIR STATION
N/A    - NOT AVAILABLE





USA.gov is the U.S. government's official web portal to all federal, state and local government web resources and services.